CZ-3C DEB, 42470

Orbit data source: Space-Track

CZ-3C DEB, 42470 is space debris in HEO originally from a launch on Sun, 31 Oct 2010 UTC launched from the Xichang Space Center, China (XSC). Debris objects in space refer to the collection of defunct objects orbiting the Earth. Examples of debris include non-operational satellites, rocket bodies, and fragments generated from explosions, collisions, or faulty payload assembly.

Loading next visibility...
Identifier
42470, 2010-057BK
Orbit
HEO
Country
Flag of CNCN / PRC
Related business
Manufacturer
CALT
Mission
Spacecraft
Bus & Motor
Unknown
Mass
Unknown
Launch date (UTC)
2010-10-31 (16 years ago)
Launch vehicle
Unknown
Launch site
Xichang Space Center, China (XSC)
Object type
Payload
Rocket body
Debris
Shape & HBR
Unknown shape, 0.2 m
Radar Cross Section
Medium (>0.1 m² and <1 m²)

Expand to show TLE details & history
Last TLE update: 8 hours ago

TLE from 8 hours ago
0 CZ-3C DEB
1 42470U 10057BK  26266.11163403  .00000536  00000-0  25388-2 0  9993
2 42470  20.9486 216.8580 6678055 127.7266 313.5481  2.93680102124818
Epoch: 2026-09-23T02:40Z
TLE epoch observation values (Epoch: 2026-09-23T02:40:45.180Z)
Latitude
-0.00001°
Longitude
174.60275°
Altitude
12,921.08 km
Speed
4.686 km/s
True Right ascension
14h 27m 02s
True Declination
0° 00' 00"
Sunlit
Object was in daylight at epoch
Visualization orbit readout
Latitude
Unknown
Longitude
Unknown
Altitude
Unknown
Speed
Unknown
Apparent Right ascension
Unknown
Apparent Declination
Unknown
Sunlit
N/A
Visualization observer readout
Local Sidereal Time
04:07:16
Azimuth
Unknown
Elevation
Unknown
Doppler factor
Unknown
Orbital elements
Apogee altitude
27,981.839 km
Perigee altitude
465.704 km
Semi-major axis
20,601.909 km
Eccentricity
0.66781
Inclination
20.9486°
RAAN
216.858°
Arg. of periapsis
127.7266°
True anomaly
232.3005°
Mean anomaly
313.5481°
Eccentric anomaly
275.45922°
Mean motion
0.73398 °/min
Orbital period
490.48 mins
BSTAR
0.0025388
Loading maneuver chart data...
Computing Atmospheric mass density...
Loading historical data...
Loading historical data...
Loading historical data...
Loading historical data...
Loading historical data...
Loading historical data...
Loading historical data...

Documentation

Showing up to 5 results
|